Location: Big Meadows
(38.5260°N, 78.4400°W)
Time: 18:47:43
(UTC-04:00)

H-2A R/B - Visible Passes

Search period start: 28 June 2017 00:00
Search period end: 08 July 2017 00:00
Orbit: 735 x 836 km, 98.4° (Epoch: 27 June)

Date Brightness Start Highest point End Pass type
(mag) Time Alt. Az. Time Alt. Az. Time Alt. Az.
28 Jun 3.6 21:36:46 11° ESE 21:40:40 23° ENE 21:44:48 10° NNE visible
28 Jun 2.9 23:17:23 29° SSW 23:19:43 45° W 23:24:55 10° NNW visible
29 Jun 4.2 21:08:14 10° E 21:10:19 12° ENE 21:12:24 10° NE visible
29 Jun 2.1 22:46:15 31° SSE 22:48:53 87° WSW 22:54:22 10° NNW visible
30 Jun 2.5 22:15:05 23° SE 22:18:12 49° ENE 22:23:27 10° N visible
30 Jun 4.0 23:55:43 16° WSW 23:57:51 20° W 00:01:46 10° NW visible
01 Jul 3.4 21:43:56 13° ESE 21:47:40 26° ENE 21:52:08 10° NNE visible
01 Jul 3.2 23:24:34 26° SW 23:26:51 38° W 23:31:55 10° NNW visible
02 Jul 4.1 21:14:29 10° E 21:17:17 14° ENE 21:20:07 10° NNE visible
02 Jul 2.2 22:53:25 32° S 22:55:59 75° WSW 23:01:28 10° NNW visible
03 Jul 2.4 22:22:16 25° SE 22:25:16 57° ENE 22:30:37 10° N visible
04 Jul 4.2 00:02:54 14° WSW 00:05:01 17° W 00:08:30 10° NW visible
04 Jul 3.2 21:51:07 15° ESE 21:54:42 31° ENE 21:59:25 10° N visible
04 Jul 3.4 23:31:46 24° SW 23:33:59 33° W 23:38:52 10° NNW visible
05 Jul 3.9 21:20:56 10° E 21:24:16 17° ENE 21:27:39 10° NNE visible
05 Jul 2.4 23:00:37 32° S 23:03:05 64° WSW 23:08:32 10° NNW visible
06 Jul 2.2 22:29:29 28° SSE 22:32:21 67° ENE 22:37:46 10° N visible
07 Jul 4.4 00:10:07 12° WSW 00:12:11 15° W 00:15:07 10° WNW visible
07 Jul 3.0 21:58:21 18° SE 22:01:44 35° ENE 22:06:39 10° N visible
07 Jul 3.6 23:38:59 22° SW 23:41:07 28° W 23:45:48 10° NW visible
